Weather History for MMMX - July, 2013

Change the Weather History Date:

Friday, July 5, 2013

  Actual Average Record
Temperature  
Mean Temperature 62 °F -  
Max Temperature 68 °F 73 °F 78 °F (1998)
Min Temperature 57 °F 53 °F 51 °F (2004)
Degree Days  
Heating Degree Days 2    
Growing Degree Days 12 (Base 50)    
Moisture  
Dew Point 55 °F    
Average Humidity 79    
Maximum Humidity 94    
Minimum Humidity 40    
Precipitation  
Precipitation 1.45 in - - ()
Sea Level Pressure  
Sea Level Pressure 30.14 in    
Wind  
Wind Speed 4 mph ()    
Max Wind Speed 14 mph    
Max Gust Speed -    
Visibility 5.8 miles    
Events Rain , Thunderstorm    
Averages and records for this station are not official NWS values.
T = Trace of Precipitation, MM = Missing Value Source: Averaged Metar Reports

Daily Weather History Graph

Daily Weather History Graph

Search for Another Location

Airport or City:

Trip Planner

Search our weather history database for the weather conditions in past years. The results will help you decide how hot, cold, wet, or windy it might be!

Date:

Astronomy

Jul. 05, 2013 Rise Set
Actual Time 7:03 AM CDT 8:18 PM CDT
Civil Twilight 6:38 AM CDT 8:43 PM CDT
Nautical Twilight 6:09 AM CDT 9:12 PM CDT
Astronomical Twilight 5:40 AM CDT 9:41 PM CDT
Moon 4:56 AM CDT (7/5) 6:21 PM CDT (7/5)
Length of Visible Light 14h 04m
Length of Day
13h 15m
Waning Crescent, 6% of the Moon is Illuminated
Jul 5
Waning Crescent
Jul 8
New
Jul 15
First Quarter
Jul 22
Full
Jul 29
Last Quarter

Hourly Weather History & Observations

Time (CDT) Temp. Dew Point Humidity Pressure Visibility Wind Dir Wind Speed Gust Speed Precip Events Conditions
12:46 AM 60.8 °F 57.2 °F 88% 29.79 in 6.0 mi SW 3.5 mph - N/A   Overcast
1:54 AM 60.8 °F 57.2 °F 88% 30.28 in 6.0 mi Calm Calm - N/A   Overcast
2:58 AM 60.8 °F 55.4 °F 82% 30.26 in 6.0 mi Calm Calm - N/A   Overcast
3:02 AM 60.8 °F 55.4 °F 82% 30.26 in 6.0 mi Calm Calm - N/A   Overcast
3:49 AM 60.8 °F 57.2 °F 88% 29.76 in 4.0 mi East 5.8 mph - N/A Rain Light Rain
4:49 AM 57.2 °F 55.4 °F 94% 30.24 in 4.0 mi NE 5.8 mph - N/A Rain Light Rain
5:49 AM 57.2 °F 55.4 °F 94% 30.23 in 4.0 mi Calm Calm - N/A Rain Light Rain
6:54 AM 59.0 °F 55.4 °F 88% 29.75 in 4.0 mi NE 4.6 mph - N/A   Overcast
7:08 AM 59.0 °F 57.2 °F 94% 30.24 in 2.0 mi ENE 5.8 mph - N/A   Overcast
7:20 AM 59.0 °F 57.2 °F 94% 30.24 in 3.0 mi ENE 6.9 mph - N/A   Overcast
7:45 AM 59.0 °F 55.4 °F 88% 30.25 in 3.0 mi NE 5.8 mph - N/A   Overcast
8:20 AM 59.0 °F 57.2 °F 94% 30.26 in 3.0 mi NE 5.8 mph - N/A   Overcast
8:47 AM 60.8 °F 57.2 °F 88% 30.26 in 3.0 mi NE 5.8 mph - N/A   Overcast
9:21 AM 60.8 °F 57.2 °F 88% 30.28 in 3.0 mi NE 6.9 mph - N/A   Overcast
9:48 AM 62.6 °F 57.2 °F 82% 29.84 in 4.0 mi NE 6.9 mph - N/A   Overcast
10:50 AM 66.2 °F 55.4 °F 68% 30.27 in 5.0 mi NE 3.5 mph - N/A   Overcast
11:48 AM 66.2 °F 55.4 °F 68% 30.27 in 5.0 mi SW 3.5 mph - N/A   Overcast
12:15 PM 64.4 °F 55.4 °F 73% 30.27 in 4.0 mi SSE 6.9 mph - N/A Rain Rain
12:36 PM 60.8 °F 53.6 °F 77% 30.26 in 6.0 mi West 3.5 mph - N/A Rain Light Rain
12:47 PM 62.6 °F 53.6 °F 72% 29.81 in 6.0 mi Calm Calm - N/A   Overcast
1:00 PM 66.2 °F 53.6 °F 64% - 6.0 mi Calm Calm - N/A   Overcast
1:44 PM 68.0 °F 53.6 °F 60% 30.23 in 6.0 mi Calm Calm - N/A   Overcast
2:37 PM 68.0 °F 55.4 °F 64% 30.22 in 5.0 mi ESE 3.5 mph - N/A Rain Light Rain
2:49 PM 64.4 °F 39.2 °F 40% 30.22 in 3.0 mi ENE 13.8 mph - N/A Rain , Thunderstorm Thunderstorms and Rain
3:05 PM 62.6 °F - N/A% 30.22 in 5.0 mi WNW 5.8 mph - N/A Rain , Thunderstorm Light Thunderstorms and Rain
3:27 PM 62.6 °F 57.2 °F 82% 30.22 in 7.0 mi WNW 9.2 mph - N/A Thunderstorm Overcast
3:49 PM 62.6 °F 55.4 °F 77% 29.76 in 7.0 mi NW 3.5 mph - N/A Thunderstorm Overcast
4:10 PM 62.6 °F 55.4 °F 77% 30.21 in 9.0 mi North 6.9 mph - N/A Rain Light Rain
4:47 PM 62.6 °F 57.2 °F 82% 30.19 in 8.0 mi NNW 6.9 mph - N/A   Overcast
5:51 PM 64.4 °F 57.2 °F 77% 30.18 in 8.0 mi NNW 9.2 mph - N/A   Overcast
6:07 PM 64.4 °F 57.2 °F 77% 30.18 in 8.0 mi North 10.4 mph - N/A Rain Light Rain
6:46 PM 62.6 °F 55.4 °F 77% 29.73 in 7.0 mi North 8.1 mph - N/A Rain Light Rain
7:44 PM 62.6 °F 51.8 °F 68% 30.20 in 7.0 mi East 9.2 mph - N/A   Overcast
8:43 PM 60.8 °F 53.6 °F 77% 30.23 in 10.0 mi North 9.2 mph - N/A   Overcast
9:58 PM 60.8 °F 53.6 °F 77% 29.89 in 7.0 mi SE 3.5 mph - N/A   Overcast
10:47 PM 60.8 °F 53.6 °F 77% 30.27 in 12.0 mi ESE 6.9 mph - N/A   Mostly Cloudy
11:47 PM 60.8 °F 53.6 °F 77% 30.28 in 12.0 mi ESE 6.9 mph - N/A   Mostly Cloudy